Погода в Молвотицах

Россия / Новгородская область     57°24′36″N   32°19′49″E
темп.,
°C
ветер,
м/с
пор.,
м/с
влажн.,
%
обл.,
%
осадки,
мм/ч
давл.,
гПа
погр.,
м
16 мая, вс
вс1600:00+11ю25975 0.0 100592
03:00+10ююз389720 0.0 1006214
06:00+11ююз399729 0.0 1006317
09:00+15зюз468244 0.0 1008627
12:00+18зюз466691 0.4 10091352
15:00+18з357269 1.6 10101003
18:00+20сз23580 0.1 10101150
21:00+14всв11895 0.1 101210
17 мая, пн
пн1700:00+12вюв229432 0.0 101228
03:00+11юв239492 0.0 101359
06:00+12юв2889100 0.0 1013169
09:00+18юв4867100 0.0 1013623
12:00+22ююв485196 0.0 10121867
15:00+23юв5648100 0.0 10111633
18:00+22юв485651 0.0 10091247
21:00+16в31193100 1.9 1008285
18 мая, вт
вт1800:00+15вюв2109599 0.9 1007252
03:00+15вюв3129677 0.9 1006311
06:00+16вюв41294100 0.0 1005402
09:00+20юв51278100 0.0 1004718
12:00+25юв61158100 0.0 10031587
15:00+27юв7145087 0.0 10022278
18:00+23ююв6126440 0.3 10021679
21:00+19ююв51275100 0.8 1004983
19 мая, ср
ср1900:00+18ююв4126871 0.1 1004662
03:00+14юв39896 0.1 1005204
06:00+15юв2586100 0.0 1005160
09:00+20всв126536 0.0 1004598
12:00+23вюв596898 0.9 10011385
15:00+25юв6124756 1.6 10022469
18:00+24юв4125297 0.0 10012104
21:00+16ю1596100 2.6 1001167
20 мая, чт
чт2000:00+14вюв38974 0.5 1001256
03:00+13юв399845 0.5 1001341
06:00+14юв3893100 0.0 1001614
09:00+16ююв4683100 0.1 1001794
12:00+18ю356868 0.8 10001210
15:00+17юз358298 3.7 1000723
18:00+14зюз4895100 3.3 1001569
21:00+11зюз4993100 3.4 1003693